Location: Northcutt
(34.7304°N, 84.4305°W)
Time: 16:54:46
(UTC+00:00)

SR - Pass Details

Date: 09 October 2022
Orbit: 577 x 874 km, 66.7° (Epoch: 05 December)

Event Time Altitude Azimuth Distance (km) Brightness Sun altitude
Rises 23:03:34 0° 165° (SSE) 3,390 ? 0.6°
Reaches altitude 10° 23:06:41 10° 148° (SSE) 2,489 ? 0.0°
Maximum altitude 23:10:39 19° 105° (ESE) 1,943 ? -0.8°
Drops below altitude 10° 23:14:40 10° 61° (ENE) 2,526 ? -1.6°
Sets 23:17:50 0° 45° (NE) 3,459 ? -2.3°
